User: anonymous   Login
Location: SAPM � Hemmingford
(45.0500°N, 73.5833°W)
Time: 13:00:16
(UTC-04:00)
Language:

Iridium 75 - Orbit

View from above orbital plane
View from above orbital plane
View from above satellite
View from above satellite

Ground track
Ground track

The orbit data is extracted from the following two-line orbital elements,

1 25346U 98032E   15245.28452034  .00000229  00000-0  74773-4 0  9992
2 25346  86.3998 137.4768 0002156  81.3030  41.9634 14.34224615905946
Epoch (UTC): 02 September 2015 06:49:42
Eccentricity: 0.0002156
inclination: 86.3998°
perigee height: 776 km
apogee height: 779 km
right ascension of ascending node: 137.4768°
argument of perigee: 81.3030°
revolutions per day: 14.34224615
mean anomaly at epoch: 41.9634°
orbit number at epoch: 90594

The dashed part of the orbit path shows where the satellite is in the earth's shadow,  

DLR